Flag for Canada Weather past 2 weeks in Lloydminster, Alberta, Canada

Now
16 °F

Ice fog.


Feels Like: 7 °F
Forecast: 9 / 19 °F
Wind: 6 mph from Southwest

Location: Lloydminister

Current Time: Dec 18, 2014 at 2:45:16 PM

Latest Report: Dec 18, 2014 at 2:00 PM


Visibility: 1 mi

Pressure: 29.97 "Hg

Humidity: 93%

Dew point: 14 °F

Location of LloydminsterLocation

Historic Weather in Lloydminster — Graph

°F

Lloydminster temperature yesterday

Maximum temperature yesterday: 19 °F (at 10:00 AM)
Minimum temperature yesterday: 16 °F (at 12:00 AM)
Average temperature yesterday: 18 °F

Past Weeks' High & Low Weather Summary

 TemperatureHumidityPressure
High43 °F (Dec 10, 2:00 AM)100% (Dec 7, 5:00 PM)30.42 "Hg (Dec 7, 5:00 PM)
Low7 °F (Dec 5, 8:00 AM)57% (Dec 11, 2:00 PM)29.35 "Hg (Dec 11, 8:00 AM)
Average21 °F89%30.02 "Hg
* Reported Dec 3 1:00 PM — Dec 18 1:00 PM, Lloydminster, Weather by CustomWeather, © 2014

Note: Actual official high and low records may vary slightly from our data, if they occured in-between our weather recording intervals... More about our weather records

Advertising

Lloydminster weather history for previous 24 hours

 ConditionsComfort  
Time TempWeatherWind HumidityBarometerVisibility
1:00 PM
Dec 18
18 °FIce fog.6 mph93%29.97 "Hg1 mi
12:00 PM18 °FIce fog.5 mph93%29.98 "Hg1 mi
11:00 AM18 °FIce fog.2 mph93%29.98 "Hg1 mi
10:00 AM18 °FIce fog.3 mph93%29.99 "Hg1 mi
9:00 AM16 °FIce fog.3 mph93%29.99 "Hg1 mi
8:00 AM16 °FIce fog.2 mph93%29.98 "Hg1 mi
7:00 AM16 °FIce fog.2 mph93%29.98 "Hg2 mi
6:00 AM18 °FIce fog.3 mph93%29.97 "Hg3 mi
5:00 AM18 °FIce fog.2 mph93%29.97 "Hg3 mi
4:00 AM18 °FIce fog.3 mph93%29.98 "Hg3 mi
3:00 AM18 °FIce fog.2 mph93%29.98 "Hg3 mi
2:52 AM18 °FIce fog.5 mph100%29.98 "Hg3 mi
2:04 AM19 °FIce fog.5 mph93%29.98 "Hg2 mi
2:01 AM19 °FIce fog.6 mph93%29.98 "Hg2 mi
1:00 AM18 °FIce fog.6 mph100%29.97 "Hg1 mi
12:00 AM18 °FIce fog.6 mph93%29.99 "Hg1 mi
11:51 PM
Dec 17
18 °FIce fog.6 mph93%29.99 "Hg1 mi
11:00 PM18 °FIce fog.6 mph93%30.00 "Hg1 mi
10:00 PM18 °FIce fog.9 mph93%30.01 "Hg1 mi
9:00 PM18 °FIce fog.9 mph93%30.01 "Hg4 mi
8:00 PM18 °FIce fog.9 mph93%30.01 "Hg3 mi
7:00 PM16 °FLight snow. Ice fog.9 mph93%30.02 "Hg2 mi
6:00 PM18 °FIce fog.10 mph93%30.02 "Hg3 mi
5:00 PM18 °FIce fog.9 mph93%30.03 "Hg3 mi
4:00 PM18 °FIce fog.12 mph93%30.02 "Hg2 mi
3:00 PM18 °FIce fog.12 mph93%30.03 "Hg2 mi
2:00 PM18 °FIce fog.13 mph93%30.03 "Hg3 mi
Weather by CustomWeather, © 2014

See weather overviewHow to use our weather pages